CDT,Max TemperatureF,Mean TemperatureF,Min TemperatureF,Max Dew PointF,MeanDew PointF,Min DewpointF,Max Humidity, Mean Humidity, Min Humidity, Max Sea Level PressureIn, Mean Sea Level PressureIn, Min Sea Level PressureIn, Max VisibilityMiles, Mean VisibilityMiles, Min VisibilityMiles, Max Wind SpeedMPH, Mean Wind SpeedMPH, Max Gust SpeedMPH,PrecipitationIn, CloudCover, Events, WindDirDegrees
2013-4-1,37,28,19,19,14,11,88,62,41,30.36,30.30,30.21,10,10,10,20,13,25,0.00,0,,348
2013-4-2,45,32,19,24,20,15,89,67,38,30.38,30.35,30.32,10,9,3,14,2,,0.00,1,,28
2013-4-3,53,38,23,31,26,19,85,65,43,30.38,30.29,30.15,10,10,10,25,10,31,0.00,0,,157
2013-4-4,55,44,32,32,28,24,79,59,31,30.21,30.14,30.09,10,10,9,20,13,26,0.00,2,Rain,319
2013-4-5,54,42,30,33,27,24,79,60,40,30.22,30.05,29.75,10,10,10,22,13,33,0.00,4,,104
2013-4-6,57,47,33,45,40,30,89,70,53,29.83,29.63,29.53,10,9,5,21,16,29,0.02,3,Rain,288
2013-4-7,54,39,24,45,32,25,100,87,59,29.95,29.86,29.68,10,3,0,18,7,,0.03,6,Fog-Rain,56
2013-4-8,63,48,33,50,43,32,100,84,59,29.94,29.74,29.62,10,4,0,23,9,31,0.00,5,Fog-Rain,38
2013-4-9,43,38,33,41,34,30,93,90,87,30.07,29.92,29.79,10,4,1,36,24,48,2.03,8,Rain-Snow-Thunderstorm,32
2013-4-10,34,32,30,32,30,28,93,89,85,30.03,29.95,29.78,10,6,2,26,19,36,0.19,8,Rain-Snow,47
2013-4-11,36,34,32,34,32,30,96,90,87,29.81,29.65,29.58,10,3,1,18,10,,0.30,8,Rain-Snow,44
2013-4-12,37,33,28,30,27,25,89,81,70,29.96,29.82,29.64,10,10,8,21,14,24,0.00,8,,314
2013-4-13,42,34,26,31,27,23,88,75,58,30.00,29.93,29.82,10,10,10,16,11,,0.00,6,,299
2013-4-14,57,46,37,49,38,30,89,81,66,29.79,29.53,29.35,10,9,7,33,20,43,0.07,6,Rain,163
2013-4-15,42,36,30,29,26,22,82,69,60,30.09,29.86,29.61,10,10,10,29,20,37,0.00,5,,277
2013-4-16,48,37,28,31,28,26,89,68,48,30.30,30.22,30.10,10,10,9,16,11,21,0.00,2,,344
2013-4-17,39,35,33,34,31,28,93,82,70,30.28,30.11,29.86,10,8,2,20,15,24,0.05,8,Rain-Snow,27
2013-4-18,35,32,30,32,29,27,93,88,81,29.87,29.72,29.64,10,3,0,30,21,37,0.65,8,Fog-Rain-Snow,340
2013-4-19,35,30,24,27,22,17,89,73,64,30.12,29.87,29.69,10,9,2,29,21,36,0.00,3,Snow,310
2013-4-20,42,30,18,28,21,14,84,67,51,30.30,30.24,30.14,10,10,10,15,8,23,0.00,3,,126
2013-4-21,61,48,37,46,37,28,93,75,49,30.23,30.13,30.02,10,10,8,24,13,30,0.02,7,Rain,152
2013-4-22,39,34,30,35,32,27,93,89,81,30.22,30.13,30.06,10,4,0,24,16,34,0.46,8,Fog-Rain-Snow,19
2013-4-23,37,30,24,27,22,17,86,74,57,30.25,30.21,30.17,10,10,9,25,19,32,0.00,2,Rain-Snow,335
2013-4-24,55,40,26,39,29,21,89,71,38,30.17,30.08,29.98,10,9,2,29,13,52,0.07,2,Rain-Thunderstorm,264
2013-4-25,62,44,25,37,30,20,88,61,34,30.27,30.15,30.02,10,10,10,17,9,24,0.00,0,,221
2013-4-26,73,58,41,38,35,29,76,46,20,30.17,30.06,29.99,10,10,10,22,12,28,0.00,0,,258
2013-4-27,73,52,32,46,40,30,92,60,30,30.18,30.06,29.93,10,10,10,15,5,21,0.00,0,,195
2013-4-28,84,64,46,49,45,41,86,54,23,29.92,29.78,29.66,10,10,7,21,12,30,0.00,1,,186
2013-4-29,78,62,46,54,48,40,86,63,37,29.82,29.70,29.47,10,10,5,14,11,,0.05,1,Rain-Thunderstorm,73
2013-4-30,70,62,54,56,42,24,78,48,19,29.98,29.67,29.43,10,10,10,21,13,32,0.01,2,Rain,332